{"data":{"norad_id":68412,"epoch":"2026-05-25T05:40:40.386720Z","epoch_age_seconds":64665,"freshness":"FRESH","line1":"1 68412U 26066A   26145.23657855  .00000433  00000+0  43372-4 0  9992","line2":"2 68412  84.9671 242.3412 0024504 337.9229  22.0936 14.88384918  8314","mean_motion":14.88384918,"eccentricity":0.0024504,"inclination_deg":84.9671,"raan_deg":242.3412,"arg_perigee_deg":337.9229,"mean_anomaly_deg":22.0936,"bstar":4.3372e-5,"rev_number":831,"period_min":96.749166333598,"perigee_km":585.87482256461,"apogee_km":620.0878873987,"semimajor_km":6981.1183549817,"source":"CELESTRAK","updated_at":"2026-05-25T13:38:07.809248Z"}}